CAPE
2346 2247 2115 1949 1812 1648 1368 1253 1305 1501 1637 1467 1315 1206 1048 1072 845 964 1110 746 891 547
2391 2302 2033 1986 2001 1941 1781 1442 1660 1691 1752 1689 1678 1390 1346 1108 895 1053 1125 1071 1005 662
2379 2449 2367 2321 2311 2099 1816 1904 1691 1811 1795 1779 1767 1763 1562 1168 1150 1220 1138 923 773 897
2337 2294 2538 2411 2471 2545 2335 2002 2268 2159 2002 1854 1852 1803 1713 1601 1375 1207 1188 1011 705 569
2510 2377 2309 2600 2529 2573 2605 2445 2325 2385 2329 2148 2044 1838 1735 1631 1463 1338 1140 1067 909 595
2614 2579 2473 2356 2700 2676 2738 2774 2492 2433 2303 1430 1418 1236 1550 1689 1523 1342 1117 1016 921 637
2669 2544 2450 2506 2708 2872 2879 2871 1846 192 0 0 13 804 868 1330 1344 1405 1306 1234 1062 1132
2834 2814 2808 2822 2874 2922 2976 1613 375 10 0 0 0 26 150 703 1274 1036 1217 1332 1211 1049
3027 3254 3276 3301 3170 3030 2458 1610 383 27 7 0 0 2 0 0 238 625 878 934 1114 1248
3481 3589 3641 3669 3395 2824 2096 1439 579 205 20 0 0 0 0 0 153 174 35 405 1047 1047
3830 3824 3929 3965 3838 3208 2034 1183 525 503 229 41 12 0 0 4 263 214 161 220 859 1065
4082 3952 3910 4022 4070 3469 2429 1526 1029 660 279 213 165 70 318 150 420 464 430 603 646 1094
1974 3650 4000 3894 3920 3872 2525 1755 994 996 939 763 234 205 513 569 701 767 676 930 397 392
693 1104 2404 3799 3860 3634 2545 1819 1353 1579 1368 405 87 310 296 445 691 793 855 940 918 821
CIN
-77 -39 -16 -6 -3 -2 -6 -4 -4 -1 -1 -1 -1 -0 -1 -0 -2 -1 -0 -1 -1 -2
-82 -68 -40 -29 -17 -16 -23 -10 -1 -2 -1 -1 -1 -1 -0 -1 -0 -1 -0 -0 -0 -1
-85 -71 -51 -30 -39 -38 -41 -18 -8 -2 -1 -1 -1 -0 -0 -4 -0 -0 -1 -2 -3 -0
-77 -69 -73 -64 -51 -55 -31 -19 -9 -3 -0 -0 -1 -0 -0 -0 -1 -1 -0 -1 -1 -0
-90 -74 -59 -82 -61 -50 -44 -25 -11 -1 -0 -0 -0 -0 -0 -0 -0 -1 -1 -1 -1 -1
-95 -82 -68 -52 -61 -43 -20 -15 -7 -1 -0 -2 -4 -3 -1 -1 -1 -0 -0 -1 -1 -2
-108 -85 -60 -60 -55 -16 -6 -0 -3 -63 -0 -0 -5 -1 -4 -0 -1 -0 -0 -0 -0 -1
-97 -82 -83 -76 -45 -28 -0 -120 -299 -59 -0 -0 -0 -221 -93 -20 -0 -3 -1 -0 -0 -1
-116 -103 -92 -53 -42 -29 -51 -175 -440 -601 -537 -0 -0 -120 -0 -0 -91 -6 -1 -4 -1 -0
-97 -98 -89 -50 -48 -66 -123 -226 -411 -507 -313 -0 -0 -0 -0 -0 -211 -105 -129 -43 -2 -1
-60 -62 -58 -34 -27 -37 -167 -267 -349 -329 -439 -513 -498 -0 -0 -143 -164 -157 -111 -59 -1 -1
-28 -21 -34 -21 -7 -20 -100 -201 -264 -340 -411 -421 -323 -359 -250 -269 -125 -106 -86 -23 -4 -1
-206 -25 -0 -7 -6 -0 -65 -135 -235 -216 -166 -154 -321 -286 -190 -85 -48 -19 -9 -3 -29 -26
-370 -271 -48 -0 -0 -0 -33 -84 -133 -72 -87 -275 -373 -231 -202 -143 -74 -21 -1 -2 -8 -6
Wind_Speed
15 13 13 13 13 12 12 9 14 13 16 12 12 9 2 15 27 26 19 20 26 24
12 12 10 11 9 10 12 11 6 8 10 13 10 12 11 29 25 23 19 17 21 23
11 10 9 7 8 8 6 6 8 3 4 2 9 25 10 27 28 24 20 18 13 16
8 8 7 5 5 6 6 5 2 1 9 14 24 29 29 28 30 24 24 25 19 17
7 6 4 3 4 2 3 2 4 6 5 11 19 25 29 30 28 26 23 24 20 18
5 3 1 0 1 2 1 2 7 12 18 24 23 28 28 30 31 31 28 22 21 22
6 4 2 2 3 5 4 8 14 18 32 47 42 32 33 32 32 31 32 25 18 18
9 9 7 5 6 5 7 8 7 11 29 37 20 27 36 31 31 33 26 27 22 12
12 12 10 10 6 4 4 3 5 10 7 13 4 3 19 35 33 37 35 33 29 22
16 14 12 11 8 6 2 1 2 2 2 4 4 10 24 7 20 22 34 33 32 27
21 19 15 13 9 8 4 1 1 6 10 7 1 6 28 1 5 7 21 36 14 17
24 24 22 18 13 10 6 3 1 3 8 7 7 10 3 8 1 13 25 28 34 31
31 29 25 21 16 12 8 4 0 3 8 10 8 3 7 9 6 8 13 4 18 28
34 33 31 27 20 15 10 6 3 3 6 7 4 4 10 9 4 8 10 6 2 7
Wind_Direction
165 163 163 164 171 161 168 152 180 171 186 170 167 156 96 302 267 272 292 289 253 260
158 164 155 159 143 163 174 170 142 156 167 178 167 173 167 240 274 282 290 296 285 274
154 158 161 150 161 161 157 158 170 49 7 346 260 245 329 224 263 277 288 292 298 297
141 144 140 147 159 170 170 163 135 120 342 328 300 279 276 275 262 282 278 276 286 291
155 148 130 131 160 140 164 149 359 351 349 331 314 300 285 274 277 279 283 279 284 284
148 149 166 198 158 158 122 353 346 341 331 318 307 296 291 282 274 271 275 284 281 275
86 76 57 5 352 350 357 350 342 343 322 316 285 286 284 282 277 273 269 279 286 279
43 36 36 28 8 358 350 352 338 340 357 340 299 295 279 283 279 275 281 279 282 279
28 26 27 23 28 30 17 340 331 340 352 1 330 256 283 263 273 265 271 273 274 278
18 21 23 25 29 24 39 358 262 293 220 246 13 14 210 295 288 290 273 272 270 272
3 9 15 15 19 18 18 33 234 221 207 226 121 44 284 327 315 258 208 264 251 271
355 356 359 2 8 11 16 15 301 200 199 211 214 222 127 176 154 200 250 277 262 260
338 340 346 350 355 359 3 2 182 207 206 217 215 171 188 185 193 198 193 212 198 206
332 331 333 337 343 349 354 357 339 247 228 224 217 210 216 194 199 196 198 183 275 207